LogID,LogEntryDate,LogEntryTime,LogEntrySeconds,LogNotes,AFR,STFT,CurrentLTFT,CruiseLTFT,IdleLTFT,IPW,O2Sensor2,Load,AFRMAP,LoadTiming,TimingAdv,KnockSum,RPM,IDC,Baro,MAP,Boost,OmniMAP,OmniBoost,WGDC_Active,MAF,InVVTtarget,ExVVTtarget,InVVTactual,ExVVTactual,TPS,APP,IAT,WGDCCorr,Speed,Battery,ECT,MAT,MAPCalcs,IMAPCalcs,MAFCalcs,ChosenCalc,EthanolPercent,Custom
1,2019-06-07,16:21:57.91553,0.23737,,0,0,-8.203125,-8.203125,-6.8359375,3.7,0,79.6875,14.7,79.6875,25,0,2546.875,7.85286458333333,14.21369852,14.9554695,0.74177098,18.15825,3.94455148,7.5,1.980408,19.375,0,18.90625,-0.15625,87.0588235294118,101.682352941176,84.2,0,36.047,14.29935,183.2,100.4,95.3125,0,84.375,79.6875,78.4313725490196,
2,2019-06-07,16:21:57.94677,0.26446,,0,0,-8.203125,-8.203125,-6.8359375,3.7,0,81.25,14.7,81.25,25,0,2531.25,7.8046875,14.21369852,14.9554695,0.74177098,18.15825,3.94455148,7.5,1.980408,19.375,0,18.90625,-0.15625,87.0588235294118,101.682352941176,84.2,0,36.047,14.29935,183.2,100.4,93.75,29.6875,79.6875,81.25,78.8235294117647,
3,2019-06-07,16:21:57.97815,0.28868,,0,0,-8.203125,-8.203125,-6.8359375,3.7,0,81.25,14.7,81.25,25,0,2562.5,7.90104166666667,14.21369852,14.9554695,0.74177098,18.15825,3.94455148,7.5,1.941192,19.375,0,18.90625,-0.15625,87.0588235294118,101.682352941176,84.2,0,36.047,14.29935,183.2,100.4,92.1875,51.5625,84.375,81.25,78.4313725490196,
4,2019-06-07,16:21:58.00942,0.31859,,11.8776,0,-8.203125,-8.203125,-6.8359375,3.7,0,81.25,14.7,81.25,25,0,2570.3125,7.92513020833333,14.21369852,14.9554695,0.74177098,18.15825,3.94455148,7.5,1.941192,18.75,0,18.28125,0,87.0588235294118,101.682352941176,84.2,0,36.047,14.29935,183.2,100.4,90.625,71.875,76.5625,81.25,78.8235294117647,
5,2019-06-07,16:21:58.04050,0.36435,,11.8776,0,-8.203125,-8.203125,-6.8359375,3.8,0,82.8125,14.5860465116279,82.8125,24,0,2554.6875,8.08984375,14.28621739,15.1484433,0.862225910000001,18.39255,4.10633261,7.5,1.941192,18.75,0,18.28125,0,87.0588235294118,101.682352941176,84.2,0,36.047,14.29935,183.2,100.4,92.1875,82.8125,81.25,82.8125,78.4313725490196,
6,2019-06-07,16:21:58.07174,0.3886,,11.8776,0,-8.203125,-8.203125,-6.8359375,3.8,0,82.8125,14.5860465116279,82.8125,24,0,2546.875,8.06510416666667,14.28621739,15.1484433,0.862225910000001,18.39255,4.10633261,7.5,1.941192,17.5,0,17.8125,-0.15625,87.0588235294118,101.682352941176,84.2,0,36.047,14.22602,183.2,102.2,92.1875,82.8125,85.9375,82.8125,78.4313725490196,
7,2019-06-07,16:21:58.10298,0.41703,,11.8776,0,-8.203125,-8.203125,-6.8359375,3.8,0,82.8125,14.5860465116279,82.8125,24,0,2562.5,8.11458333333333,14.28621739,15.1484433,0.862225910000001,18.39255,4.10633261,7.5,2.098056,17.5,0,17.8125,-0.15625,87.0588235294118,101.682352941176,84.2,0,36.047,14.22602,183.2,102.2,90.625,82.8125,82.8125,82.8125,78.8235294117647,
8,2019-06-07,16:21:58.11861,0.44199,,11.8776,0,-8.203125,-8.203125,-6.8359375,3.8,0,82.8125,14.5860465116279,82.8125,24,0,2593.75,8.21354166666667,14.28621739,15.1484433,0.862225910000001,18.39255,4.10633261,7.5,2.098056,17.5,0,17.65625,0,87.0588235294118,101.682352941176,84.2,0,36.047,14.22602,183.2,102.2,92.1875,82.8125,85.9375,82.8125,78.4313725490196,
9,2019-06-07,16:21:58.14989,0.46952,,11.7894,0,-8.203125,-8.203125,-6.8359375,3.8,0,82.8125,14.5860465116279,82.8125,24,0,2585.9375,8.18880208333333,14.28621739,15.1484433,0.862225910000001,18.39255,4.10633261,7.5,2.490216,17.5,0,17.65625,0,87.0588235294118,101.682352941176,84.2,0,36.047,14.29935,183.2,102.2,92.1875,82.8125,82.8125,82.8125,78.8235294117647,
10,2019-06-07,16:21:58.18109,0.49845,,11.7894,0,-8.203125,-8.203125,-6.8359375,3.7,0,82.8125,14.5860465116279,82.8125,24,0,2570.3125,7.92513020833333,14.28621739,15.1484433,0.862225910000001,18.39255,4.10633261,7.5,2.490216,17.5,0,17.5,0,87.0588235294118,101.682352941176,84.2,0,36.047,14.29935,183.2,102.2,92.1875,84.375,81.25,84.375,78.4313725490196,
11,2019-06-07,16:21:58.22810,0.53679,,11.7894,0,-8.203125,-8.203125,-6.8359375,3.7,0,84.375,14.5860465116279,84.375,24,0,2585.9375,7.97330729166667,14.28621739,15.2449302,0.958712810000002,18.5097,4.22348261,7.5,2.588256,17.5,0,17.5,0,87.0588235294118,101.682352941176,84.2,0,36.047,14.29935,183.2,102.2,92.1875,82.8125,85.9375,84.375,78.8235294117647,
12,2019-06-07,16:21:58.24358,0.56709,,11.7894,0,-8.203125,-8.203125,-6.8359375,3.8,0,84.375,14.5860465116279,84.375,24,0,2609.375,8.26302083333333,14.28621739,15.2449302,0.958712810000002,18.5097,4.22348261,7.5,2.588256,17.5,0,17.03125,0,87.0588235294118,101.682352941176,84.2,0,36.047,14.22602,183.2,102.2,92.1875,82.8125,87.5,84.375,78.4313725490196,
13,2019-06-07,16:21:58.27485,0.59447,,11.7894,0,-8.203125,-8.203125,-6.8359375,3.8,0,84.375,14.5860465116279,84.375,24,0,2609.375,8.26302083333333,14.21369852,15.437904,1.22420548,18.744,4.53030148,7.5,2.000016,17.5,0,17.03125,0,87.0588235294118,101.682352941176,84.2,0,36.047,14.22602,183.2,102.2,93.75,84.375,81.25,84.375,78.4313725490196,
14,2019-06-07,16:21:58.29052,0.60897,,11.7894,0,-8.203125,-8.203125,-6.8359375,3.8,0,84.375,14.5860465116279,84.375,24,0,2609.375,8.26302083333333,14.21369852,15.437904,1.22420548,18.744,4.53030148,7.5,2.000016,16.875,0,16.875,0,87.0588235294118,101.682352941176,84.2,0,36.047,14.22602,183.2,102.2,93.75,84.375,76.5625,84.375,78.4313725490196,
15,2019-06-07,16:21:58.32178,0.63818,,11.8776,0,-8.203125,-8.203125,-6.8359375,3.8,0,84.375,14.5860465116279,84.375,24,0,2609.375,8.26302083333333,14.28621739,15.3414171,1.05519971,18.62685,4.34063261,7.5,2.215704,16.875,0,16.875,0,87.0588235294118,101.682352941176,84.2,0,36.047,14.22602,183.2,102.2,93.75,84.375,85.9375,84.375,78.4313725490196,
16,2019-06-07,16:21:58.35293,0.66388,,11.8776,0,-8.203125,-8.203125,-6.8359375,3.8,0,84.375,14.5860465116279,84.375,24,0,2617.1875,8.28776041666667,14.28621739,15.3414171,1.05519971,18.62685,4.34063261,7.5,2.215704,17.5,0,16.5625,0,87.0588235294118,101.682352941176,84.2,0,36.047,14.22602,183.2,102.2,93.75,84.375,87.5,84.375,78.4313725490196,
17,2019-06-07,16:21:58.38430,0.69916,,11.8776,0,-8.203125,-8.203125,-6.8359375,3.8,0,84.375,14.5860465116279,84.375,25,0,2625,8.3125,14.28621739,15.437904,1.15168661,18.744,4.45778261,7.5,2.392176,17.5,0,16.5625,0,87.0588235294118,101.682352941176,84.2,0,36.047,14.22602,183.2,102.2,93.75,84.375,75,84.375,78.8235294117647,
18,2019-06-07,16:21:58.41541,0.72657,,11.8776,0,-8.203125,-8.203125,-6.8359375,3.8,0,84.375,14.5860465116279,84.375,25,0,2640.625,8.36197916666667,14.28621739,15.437904,1.15168661,18.744,4.45778261,7.5,2.392176,17.5,0,16.40625,-0.15625,87.0588235294118,101.682352941176,84.2,0,36.047,14.22602,183.2,102.2,95.3125,85.9375,81.25,85.9375,78.8235294117647,
19,2019-06-07,16:21:58.44666,0.76403,,11.8776,0,-8.203125,-8.203125,-6.8359375,3.8,0,85.9375,14.5860465116279,85.9375,24,0,2640.625,8.36197916666667,14.21369852,15.5343909,1.32069238,18.86115,4.64745148,7.5,2.686296,17.5,0,16.40625,-0.15625,87.0588235294118,101.682352941176,84.2,0,36.047,14.22602,183.2,102.2,95.3125,85.9375,90.625,85.9375,78.8235294117647,
20,2019-06-07,16:21:58.47799,0.7898,,11.8776,0,-8.203125,-8.203125,-6.8359375,3.8,0,85.9375,14.5860465116279,85.9375,24,0,2625,8.3125,14.21369852,15.5343909,1.32069238,18.86115,4.64745148,7.5,2.686296,16.875,0,16.5625,0,87.0588235294118,101.682352941176,84.2,0,36.047,14.22602,183.2,102.2,95.3125,85.9375,79.6875,85.9375,78.8235294117647,
21,2019-06-07,16:21:58.50923,0.82432,,11.8776,0,-8.203125,-8.203125,-6.8359375,3.8,0,85.9375,14.5860465116279,85.9375,24,0,2648.4375,8.38671875,14.21369852,15.6308778,1.41717928,18.9783,4.76460148,7.5,1.647072,16.875,0,16.5625,0,87.0588235294118,101.682352941176,84.2,0,38.533,14.22602,183.2,102.2,95.3125,85.9375,76.5625,85.9375,78.8235294117647,
22,2019-06-07,16:21:58.54038,0.84897,,11.8776,0,-8.203125,-8.203125,-6.8359375,3.8,0,85.9375,14.5860465116279,85.9375,24,0,2664.0625,8.43619791666667,14.21369852,15.6308778,1.41717928,18.9783,4.76460148,7.5,1.647072,16.25,0,16.40625,-0.15625,87.0588235294118,101.682352941176,84.2,0,38.533,14.22602,183.2,102.2,95.3125,85.9375,89.0625,85.9375,78.8235294117647,
23,2019-06-07,16:21:58.57162,0.88746,,11.8776,0,-8.203125,-8.203125,-6.8359375,3.9,0,87.5,14.5860465116279,85.9375,24,0,2671.875,8.68359375,14.21369852,15.7273647,1.51366618,19.09545,4.88175148,7.5,1.941192,16.25,0,16.40625,-0.15625,87.0588235294118,101.682352941176,84.2,0,38.533,14.22602,183.2,102.2,95.3125,85.9375,81.25,85.9375,78.8235294117647,
24,2019-06-07,16:21:58.60287,0.91993,,11.8776,0,-8.203125,-8.203125,-6.8359375,3.8,0,87.5,14.5860465116279,87.5,24,0,2664.0625,8.43619791666667,14.21369852,15.7273647,1.51366618,19.09545,4.88175148,7.5,1.941192,16.25,0,16.25,0,87.0588235294118,101.682352941176,84.2,0,38.533,14.29935,183.2,102.2,96.875,87.5,76.5625,87.5,78.8235294117647,
25,2019-06-07,16:21:58.63411,0.95615,,11.8776,0,-8.203125,-8.203125,-6.8359375,3.9,0,87.5,14.4738461538462,87.5,24,0,2671.875,8.68359375,14.21369852,15.7273647,1.51366618,19.09545,4.88175148,7.5,2.627472,16.25,0,16.25,0,87.0588235294118,101.682352941176,84.2,0,38.533,14.29935,183.2,102.2,96.875,87.5,84.375,87.5,78.8235294117647,
26,2019-06-07,16:21:58.66536,0.98112,,12.0246,0,-8.203125,-8.203125,-6.8359375,3.9,0,87.5,14.4738461538462,87.5,24,0,2679.6875,8.708984375,14.21369852,15.7273647,1.51366618,19.09545,4.88175148,7.5,2.627472,16.25,0,15.9375,0,87.0588235294118,101.682352941176,84.2,0,38.533,14.29935,183.2,102.2,96.875,87.5,85.9375,87.5,78.8235294117647,
27,2019-06-07,16:21:58.69659,1.01419,,12.0246,0,-8.203125,-8.203125,-6.8359375,3.9,0,87.5,14.4738461538462,87.5,24,0,2695.3125,8.759765625,14.21369852,15.9203385,1.70663998,19.32975,5.11605148,7.5,2.000016,16.25,0,15.9375,0,87.0588235294118,101.682352941176,84.2,0,38.533,14.22602,183.2,102.2,96.875,87.5,89.0625,87.5,78.4313725490196,
28,2019-06-07,16:21:58.72784,1.04107,,12.0246,0,-8.203125,-8.203125,-6.8359375,3.9,0,87.5,14.4738461538462,87.5,23,0,2703.125,8.78515625,14.21369852,15.9203385,1.70663998,19.32975,5.11605148,7.5,2.000016,15.625,0,15.78125,0,87.0588235294118,101.682352941176,84.2,0,38.533,14.22602,183.2,102.2,96.875,87.5,75,87.5,78.8235294117647,
29,2019-06-07,16:21:58.75908,1.07308,,12.0246,0,-8.203125,-8.203125,-6.8359375,3.9,0,87.5,14.4738461538462,87.5,23,0,2687.5,8.734375,14.28621739,15.9203385,1.63412111,19.32975,5.04353261,7.5,2.176488,15.625,0,15.78125,0,87.0588235294118,101.682352941176,84.2,0,38.533,14.22602,183.2,102.2,96.875,87.5,89.0625,87.5,78.8235294117647,
30,2019-06-07,16:21:58.77470,1.09748,,12.0246,0,-8.203125,-8.203125,-6.8359375,3.9,0,87.5,14.4738461538462,87.5,23,0,2703.125,8.78515625,14.28621739,15.9203385,1.63412111,19.32975,5.04353261,7.5,2.176488,15.625,0,15.625,0,87.0588235294118,101.682352941176,84.2,0,38.533,14.22602,183.2,100.4,98.4375,87.5,84.375,87.5,78.4313725490196,
31,2019-06-07,16:21:58.82156,1.14326,,12.1128,0,-8.203125,-8.203125,-6.8359375,3.9,0,89.0625,14.4738461538462,89.0625,23,0,2726.5625,8.861328125,14.21369852,16.0168254,1.80312688,19.4469,5.23320148,7.5,2.705904,15.625,0,15.625,0,87.0588235294118,101.682352941176,84.2,0,38.533,14.22602,183.2,100.4,98.4375,89.0625,82.8125,89.0625,78.8235294117647,
32,2019-06-07,16:21:58.85281,1.16593,,12.1128,0,-8.203125,-8.203125,-6.8359375,3.8,0,89.0625,14.4738461538462,89.0625,23,0,2726.5625,8.63411458333333,14.21369852,16.0168254,1.80312688,19.4469,5.23320148,7.5,2.705904,15.625,0,15.15625,0,87.0588235294118,101.682352941176,84.2,0,38.533,14.22602,183.2,100.4,103.125,0,82.8125,87.5,78.8235294117647,
33,2019-06-07,16:21:58.89967,1.20825,,12.1128,0,-8.203125,-8.203125,-6.8359375,3.6,0,87.5,14.4738461538462,87.5,23,0,2718.75,8.15625,14.21369852,16.1133123,1.89961378,19.56405,5.35035148,7.5,1.9608,15.625,0,15.15625,0,87.0588235294118,101.682352941176,84.2,0,38.533,14.22602,183.2,100.4,103.125,0,89.0625,87.5,78.4313725490196,
34,2019-06-07,16:21:58.93101,1.24336,,12.1128,0,-8.203125,-8.203125,-6.8359375,3.7,0,87.5,14.4738461538462,87.5,24,0,2726.5625,8.40690104166667,14.21369852,16.1133123,1.89961378,19.56405,5.35035148,7.5,1.9608,16.25,0,15,0,87.0588235294118,101.682352941176,84.2,0,38.533,14.22602,183.2,100.4,103.125,0,82.8125,85.9375,78.8235294117647,
35,2019-06-07,16:21:58.96216,1.28621,,12.1128,0,-8.203125,-8.203125,-6.8359375,3.5,0,85.9375,14.5860465116279,85.9375,24,0,2742.1875,7.998046875,14.28621739,16.1133123,1.82709491,19.56405,5.27783261,7.5,1.980408,16.25,0,15,0,87.0588235294118,101.682352941176,84.2,0,38.533,14.22602,183.2,100.4,103.125,0,85.9375,85.9375,78.8235294117647,
36,2019-06-07,16:21:58.99340,1.31607,,12.054,0,-8.203125,-8.203125,-6.8359375,3.5,0,85.9375,14.5860465116279,85.9375,24,0,2757.8125,8.04361979166667,14.28621739,16.1133123,1.82709491,19.56405,5.27783261,7.5,1.980408,16.875,0,15.15625,-0.15625,87.0588235294118,101.682352941176,84.2,0,38.533,14.07936,183.2,100.4,103.125,0,73.4375,84.375,78.8235294117647,
37,2019-06-07,16:21:59.02464,1.34616,,12.054,0,-8.203125,-8.203125,-6.8359375,3.5,0,84.375,14.5860465116279,85.9375,24,0,2757.8125,8.04361979166667,14.21369852,16.3062861,2.09258758,19.79835,5.58465148,7.5,2.627472,16.875,0,15.15625,-0.15625,87.0588235294118,101.682352941176,84.2,0,38.533,14.07936,183.2,100.4,104.6875,0,87.5,85.9375,78.8235294117647,
38,2019-06-07,16:21:59.05589,1.37923,,12.054,0,-8.203125,-8.203125,-6.8359375,3.4,0,85.9375,14.5860465116279,85.9375,24,0,2750,7.79166666666667,14.21369852,16.3062861,2.09258758,19.79835,5.58465148,7.5,2.627472,16.875,0,15.625,-0.15625,87.0588235294118,101.682352941176,84.2,0,38.533,14.07936,183.2,100.4,104.6875,0,92.1875,85.9375,78.4313725490196,
39,2019-06-07,16:21:59.10275,1.41912,,12.054,0,-8.203125,-8.203125,-6.8359375,3.3,0,85.9375,14.5860465116279,85.9375,24,0,2765.625,7.60546875,14.28621739,16.2097992,1.92358181,19.6812,5.39498261,7.5,1.76472,16.875,0,15.625,-0.15625,87.0588235294118,101.682352941176,84.2,0,38.533,14.22602,183.2,100.4,104.6875,0,93.75,85.9375,78.4313725490196,
40,2019-06-07,16:21:59.13399,1.45253,,12.4215,0,-8.203125,-8.203125,-6.8359375,3.2,0,87.5,14.5860465116279,85.9375,24,0,2781.25,7.41666666666667,14.28621739,16.2097992,1.92358181,19.6812,5.39498261,7.5,1.76472,16.875,-0.625,15.625,-0.15625,87.0588235294118,101.682352941176,84.2,0,38.533,14.22602,183.2,100.4,106.25,0,92.1875,85.9375,78.4313725490196,
41,2019-06-07,16:21:59.18098,1.49005,,12.4215,0,-8.203125,-8.203125,-6.8359375,3.3,0,85.9375,14.5860465116279,85.9375,24,0,2781.25,7.6484375,14.21369852,16.402773,2.18907448,19.9155,5.70180148,7.5,2.764728,16.875,-0.625,15.625,-0.15625,87.0588235294118,101.682352941176,84.2,0,38.533,14.22602,183.2,100.4,106.25,0,90.625,85.9375,78.4313725490196,
42,2019-06-07,16:21:59.19648,1.51531,,12.4215,0,-8.203125,-8.203125,-6.8359375,3.3,0,85.9375,14.5860465116279,85.9375,24,0,2773.4375,7.626953125,14.21369852,16.402773,2.18907448,19.9155,5.70180148,7.5,2.764728,16.25,-0.625,16.09375,0,87.0588235294118,101.682352941176,84.2,0,41.019,14.22602,183.2,100.4,106.25,0,81.25,87.5,78.4313725490196,
43,2019-06-07,16:21:59.22775,1.54674,,12.4215,0,-8.203125,-8.203125,-6.8359375,3.3,0,87.5,14.4738461538462,85.9375,24,0,2789.0625,7.669921875,14.21369852,16.402773,2.18907448,19.9155,5.70180148,7.5,1.901976,16.25,-0.625,16.09375,0,87.0588235294118,101.682352941176,84.2,0,41.019,14.22602,183.2,100.4,106.25,0,87.5,85.9375,78.8235294117647,
44,2019-06-07,16:21:59.25900,1.58024,,12.4215,0,-8.203125,-8.203125,-6.8359375,3.3,0,87.5,14.5860465116279,87.5,25,0,2812.5,7.734375,14.21369852,16.402773,2.18907448,19.9155,5.70180148,7.5,1.901976,17.5,-1.25,16.09375,-0.15625,87.0588235294118,101.682352941176,84.2,0,41.019,14.22602,183.2,100.4,106.25,0,87.5,87.5,78.4313725490196,
45,2019-06-07,16:21:59.30583,1.62683,,13.7298,0,-8.203125,-8.203125,-6.8359375,3.3,0,89.0625,14.4738461538462,89.0625,23,0,2820.3125,7.755859375,14.21369852,16.4992599,2.28556138,20.03265,5.81895148,7.5,2.74512,17.5,-1.25,16.09375,-0.15625,87.0588235294118,101.682352941176,84.2,0,41.019,14.15269,183.2,100.4,106.25,0,90.625,87.5,78.4313725490196,
46,2019-06-07,16:21:59.33707,1.65756,,13.7298,0,-8.203125,-8.203125,-6.8359375,3.3,0,87.5,14.4738461538462,87.5,23,0,2796.875,7.69140625,14.21369852,16.4992599,2.28556138,20.03265,5.81895148,7.5,2.74512,18.125,-1.25,16.5625,0,87.0588235294118,101.682352941176,84.2,0,41.019,14.15269,183.2,100.4,106.25,0,92.1875,87.5,78.8235294117647,
47,2019-06-07,16:21:59.38408,1.69277,,13.7298,0,-8.203125,-8.203125,-6.8359375,3.4,0,87.5,14.4738461538462,89.0625,24,0,2835.9375,8.03515625,14.21369852,16.4992599,2.28556138,20.03265,5.81895148,7.5,2.019624,18.125,-1.25,16.5625,0,87.0588235294118,101.682352941176,84.2,0,41.019,14.15269,183.2,100.4,107.8125,0,89.0625,89.0625,78.4313725490196,
48,2019-06-07,16:21:59.39971,1.71507,,13.7298,0,-8.203125,-8.203125,-6.8359375,3.4,0,89.0625,14.4738461538462,89.0625,24,0,2835.9375,8.03515625,14.21369852,16.4992599,2.28556138,20.03265,5.81895148,7.5,2.019624,17.5,-1.875,16.40625,-0.15625,87.0588235294118,101.682352941176,84.2,0,41.019,14.15269,183.2,100.4,106.25,0,92.1875,89.0625,78.8235294117647,
49,2019-06-07,16:21:59.43080,1.75213,,13.7298,0,-8.203125,-8.203125,-6.8359375,3.3,0,89.0625,14.4738461538462,89.0625,24,0,2820.3125,7.755859375,14.28621739,16.5957468,2.30952941,20.1498,5.86358261,7.5,2.098056,17.5,-1.875,16.40625,-0.15625,87.0588235294118,101.682352941176,84.2,0,41.019,14.15269,183.2,100.4,106.25,0,98.4375,89.0625,78.4313725490196,
50,2019-06-07,16:21:59.46204,1.78493,,14.8764,0,-8.203125,-8.203125,-6.8359375,3.4,0,89.0625,14.4738461538462,89.0625,24,0,2835.9375,8.03515625,14.28621739,16.5957468,2.30952941,20.1498,5.86358261,7.5,2.098056,17.5,-1.875,16.71875,0,87.0588235294118,101.682352941176,84.2,0,41.019,14.15269,183.2,100.4,107.8125,0,84.375,89.0625,78.4313725490196,
51,2019-06-07,16:21:59.50891,1.82268,,14.8764,0,-8.203125,-8.203125,-6.8359375,3.4,0,90.625,14.4738461538462,90.625,23,0,2835.9375,8.03515625,14.21369852,16.6922337,2.47853518,20.26695,6.05325148,7.5,2.725512,17.5,-1.875,16.71875,0,87.0588235294118,101.682352941176,84.2,0,41.019,14.15269,183.2,100.4,107.8125,0,84.375,89.0625,78.4313725490196,
52,2019-06-07,16:21:59.54015,1.85733,,14.8764,0,-8.203125,-8.203125,-6.8359375,3.3,0,89.0625,14.4738461538462,89.0625,24,0,2859.375,7.86328125,14.21369852,16.6922337,2.47853518,20.26695,6.05325148,7.5,2.725512,17.5,-1.875,16.71875,0,87.0588235294118,101.682352941176,84.2,0,41.019,14.15269,183.2,100.4,107.8125,0,104.6875,90.625,78.4313725490196,
53,2019-06-07,16:21:59.58715,1.8984,,14.8764,0,-8.203125,-8.203125,-6.8359375,3.5,0,90.625,14.4738461538462,90.625,23,0,2851.5625,8.31705729166667,14.21369852,16.7887206,2.57502208,20.3841,6.17040148,7.5,1.843152,17.5,-1.875,16.71875,0,87.0588235294118,101.682352941176,84.2,0,41.019,14.15269,183.2,100.4,109.375,0,82.8125,90.625,78.8235294117647,
54,2019-06-07,16:21:59.60266,1.92617,,14.8764,0,-8.203125,-8.203125,-6.8359375,3.4,0,90.625,14.4738461538462,90.625,23,0,2851.5625,8.07942708333333,14.21369852,16.7887206,2.57502208,20.3841,6.17040148,7.5,1.843152,18.75,-1.875,17.03125,0,87.0588235294118,101.682352941176,84.2,0,41.019,14.22602,183.2,100.4,109.375,0,85.9375,89.0625,78.4313725490196,
55,2019-06-07,16:21:59.64949,1.9646,,15.0675,0,-8.203125,-8.203125,-6.8359375,3.4,0,89.0625,14.4738461538462,90.625,24,0,2875,8.14583333333333,14.21369852,16.7887206,2.57502208,20.3841,6.17040148,7.5,2.490216,18.75,-1.875,17.03125,0,87.0588235294118,101.682352941176,84.2,0,41.019,14.22602,183.2,100.4,109.375,0,100,92.1875,78.4313725490196,
56,2019-06-07,16:21:59.68074,2.0023,,15.0675,0,-8.203125,-8.203125,-6.8359375,3.5,0,92.1875,14.363358778626,92.1875,23,0,2882.8125,8.408203125,14.21369852,16.7887206,2.57502208,20.3841,6.17040148,7.5,2.490216,18.75,-1.25,17.1875,-0.15625,87.0588235294118,101.682352941176,84.2,0,41.019,14.22602,183.2,100.4,109.375,0,87.5,92.1875,78.4313725490196,
57,2019-06-07,16:21:59.72774,2.03949,,15.0675,0,-8.203125,-8.203125,-6.8359375,3.4,0,93.75,14.363358778626,92.1875,22,0,2875,8.14583333333333,14.21369852,16.7887206,2.57502208,20.3841,6.17040148,7.5,2.470608,18.75,-1.25,17.1875,-0.15625,87.0588235294118,101.682352941176,84.2,0,41.019,14.22602,183.2,100.4,109.375,0,95.3125,93.75,78.4313725490196,
58,2019-06-07,16:21:59.75885,2.07136,,15.0675,0,-8.203125,-8.203125,-6.8359375,3.5,0,93.75,14.363358778626,93.75,22,0,2890.625,8.43098958333333,14.21369852,16.7887206,2.57502208,20.3841,6.17040148,7.5,2.470608,18.75,-1.25,17.8125,0,87.0588235294118,101.682352941176,84.2,0,41.019,14.22602,183.2,100.4,109.375,0,87.5,93.75,78.8235294117647,
59,2019-06-07,16:21:59.80571,2.11439,,15.0234,0,-8.203125,-8.203125,-6.8359375,3.4,0,92.1875,14.363358778626,92.1875,22,0,2890.625,8.19010416666667,14.28621739,16.7887206,2.50250321,20.3841,6.09788261,7.5,2.333352,18.75,-1.25,17.8125,0,87.0588235294118,101.682352941176,84.2,0,41.019,14.22602,183.2,100.4,110.9375,0,106.25,95.3125,78.4313725490196,
60,2019-06-07,16:21:59.83695,2.14936,,15.0234,0,-8.203125,-8.203125,-6.8359375,3.5,0,96.875,14.363358778626,96.875,21,0,2882.8125,8.408203125,14.28621739,16.7887206,2.50250321,20.3841,6.09788261,7.5,2.333352,20,-1.875,17.8125,-0.15625,87.0588235294118,101.682352941176,84.2,0,41.019,14.15269,183.2,100.4,110.9375,0,96.875,95.3125,78.8235294117647,
61,2019-06-07,16:21:59.86819,2.18927,,15.0234,0,-8.203125,-8.203125,-6.8359375,3.5,0,95.3125,14.363358778626,95.3125,22,0,2937.5,8.56770833333333,14.28621739,17.0781813,2.79196391,20.73555,6.44933261,7.5,2.451,20,-1.875,17.8125,-0.15625,87.0588235294118,101.682352941176,84.2,0,41.019,14.15269,183.2,100.4,110.9375,0,96.875,96.875,78.8235294117647,
62,2019-06-07,16:21:59.91520,2.22656,,15.0234,0,-8.203125,-8.203125,-6.8359375,3.5,0,96.875,14.2545454545455,95.3125,21,0,2906.25,8.4765625,14.28621739,17.0781813,2.79196391,20.73555,6.44933261,7.5,2.451,19.375,-1.25,18.75,0,87.0588235294118,101.682352941176,84.2,0,41.019,14.15269,183.2,100.4,112.5,0,101.5625,95.3125,78.4313725490196,
63,2019-06-07,16:21:59.96198,2.27286,,15.0234,0,-8.203125,-8.203125,-6.8359375,3.6,0,95.3125,14.363358778626,96.875,21,0,2914.0625,8.7421875,14.21369852,17.1746682,2.96096968,20.8527,6.63900148,7.5,2.607864,19.375,-1.25,18.75,0,87.0588235294118,101.682352941176,84.2,0,42.262,14.15269,183.2,100.4,112.5,0,90.625,96.875,78.4313725490196,
64,2019-06-07,16:21:59.99320,2.31402,,14.8176,0,-8.203125,-8.203125,-6.8359375,3.5,0,96.875,14.363358778626,95.3125,22,0,2945.3125,8.59049479166667,14.21369852,17.1746682,2.96096968,20.8527,6.63900148,7.5,2.607864,20,-0.625,18.90625,0,87.0588235294118,101.682352941176,84.2,0,42.262,14.15269,183.2,100.4,110.9375,0,112.5,98.4375,78.4313725490196,
65,2019-06-07,16:22:00.05578,2.36956,,14.8176,0,-8.203125,-8.203125,-6.8359375,3.7,0,98.4375,14.2545454545455,98.4375,21,0,2945.3125,9.08138020833333,14.21369852,17.1746682,2.96096968,20.8527,6.63900148,7.5,2.74512,20,-0.625,18.90625,0,87.0588235294118,101.682352941176,84.2,0,42.262,14.15269,183.2,100.4,112.5,0,98.4375,98.4375,78.8235294117647,
66,2019-06-07,16:22:00.07127,2.39371,,14.8176,0,-8.203125,-8.203125,-6.8359375,3.7,0,98.4375,14.2545454545455,98.4375,21,0,2960.9375,9.12955729166667,14.21369852,17.1746682,2.96096968,20.8527,6.63900148,7.5,2.74512,20.625,0,19.53125,0,87.0588235294118,101.682352941176,84.2,0,42.262,14.22602,183.2,100.4,112.5,0,103.125,100,78.8235294117647,
67,2019-06-07,16:22:00.11814,2.43386,,14.8176,0,-8.203125,-8.203125,-6.8359375,3.6,0,100,14.2545454545455,100,21,0,2976.5625,8.9296875,14.28621739,17.1746682,2.88845081,20.8527,6.56648261,7.5,2.529432,20.625,0,19.53125,0,87.0588235294118,101.682352941176,84.2,0,42.262,14.22602,183.2,100.4,112.5,0,103.125,100,78.4313725490196,
68,2019-06-07,16:22:00.14938,2.46269,,14.7294,0,-8.203125,-8.203125,-6.8359375,3.6,0,100,14.2545454545455,100,20,0,2937.5,8.8125,14.28621739,17.1746682,2.88845081,20.8527,6.56648261,7.5,2.529432,20.625,0,19.84375,0,87.0588235294118,101.682352941176,84.2,0,42.262,14.22602,183.2,100.4,114.0625,0,100,100,78.4313725490196,